[[{"header":{"parameterUnit":"m.s-1","parameterCategory":1,"la1":30.2991,"la2":30.254,"lo1":-89.0895,"lo2":-89.0444,"dy":0.0017,"dx":0.0017,"nx":28,"ny":28,"refTime":"2024-02-07T09:00:00:Z","depth":0,"parameterNumber":2,"parameterNumberName":"U-component_of_WINDS"},"data":[0,0,0,0,0,0,0,0,0,0,0,0,0,0,0,0,0,0,0,0,0,0,0,0,0,0,0,0,0,0,0,0,0,0,0,0,0,0,0,0,0,0,0,0,0,0,0,0,0,0,0,0,0,0,0,0,0,0,-3.9182,-3.9183,0,-3.9278,-3.9279,-3.928,-3.9276,-3.9275,-3.9274,-3.9273,-3.9368,-3.9371,-3.9375,0,0,0,0,0,0,0,0,0,0,0,0,0,-3.8993,-3.8996,-3.9182,-3.9183,-3.9185,-3.9278,-3.9279,-3.9281,-3.9277,-3.9275,-3.9273,-3.9272,-3.9367,-3.9371,-3.9376,0,0,0,0,0,0,0,0,0,0,0,0,0,-3.908,-3.8997,-3.9182,-3.9194,-3.9196,-3.9278,-3.9279,-3.9281,-3.9277,-3.9275,-3.9273,-3.9271,-3.9365,-3.9371,-3.9376,-3.9451,0,0,-3.9393,-3.9396,0,0,0,0,0,0,0,0,-3.9075,-3.9087,-3.9191,-3.9193,-3.9196,-3.9263,-3.9247,-3.9338,-3.9278,-3.9246,-3.9273,-3.927,-3.9334,-3.9343,-3.9365,-3.9456,-3.946,-3.9394,-3.9397,-3.94,-3.9401,0,0,0,0,0,0,0,-3.9069,-3.9083,-3.922,-3.9192,-3.9195,-3.9194,-3.9204,-3.9265,-3.93,-3.9249,-3.9249,-3.926,-3.9335,-3.9359,-3.9367,-3.9461,-3.9394,-3.9399,-3.9402,-3.9405,-3.9618,-3.962,0,0,0,0,0,0,-3.9061,-3.9078,-3.9217,-3.9223,-3.913,-3.9199,-3.921,-3.9244,-3.93,-3.9306,-3.9262,-3.926,-3.9351,-3.936,-3.937,-3.9461,-3.94,-3.9405,-3.9408,-3.9616,-3.9619,-3.9621,0,0,0,0,0,0,-3.9057,-3.9074,-3.9213,-3.9151,-3.9168,-3.9204,-3.9242,-3.9247,-3.9271,-3.931,-3.9316,-3.928,-3.9349,-3.9362,-3.9431,-3.9464,-3.9408,-3.9413,-3.9613,-3.9617,-3.962,-3.9643,0,0,0,0,0,0,-3.9052,-3.9072,-3.9102,-3.9151,-3.9172,-3.9273,-3.9244,-3.925,-3.9281,-3.9279,-3.9328,-3.9334,-3.9349,-3.9423,-3.9437,-3.9471,-3.9417,-3.961,-3.9615,-3.9619,-3.964,-3.9647,-3.9653,0,0,0,0,0,-3.9045,-3.9104,-3.9103,-3.912,-3.9209,-3.9275,-3.9286,-3.9303,-3.9283,-3.9313,-3.9338,-3.9333,-3.9459,-3.943,-3.9446,-3.9482,-3.9608,-3.9613,-3.9618,-3.9637,-3.9646,-3.9653,0,0,0,0,0,0,-3.9055,-3.911,-3.911,-3.9187,-3.9227,-3.9274,-3.9312,-3.9312,-3.9357,-3.9353,-3.9371,-3.9382,-3.945,-3.9474,-3.944,-3.9558,-3.9531,-3.954,-3.9539,-3.9548,-3.9555,-3.9547,-3.9422,0,0,0,0,0,-3.9067,-3.9117,-3.9162,-3.9225,-3.9245,-3.9275,-3.9305,-3.9314,-3.9355,-3.9371,-3.9401,-3.9441,-3.9489,-3.952,-3.9567,-3.9644,-3.9654,-3.9677,-3.9684,-3.9689,-3.9695,-3.9737,-3.9747,-3.9638,-3.9638,-3.9638,0,0,-3.909,-3.9127,-3.9157,-3.9228,-3.926,-3.931,-3.9289,-3.9343,-3.938,-3.9379,-3.9446,-3.947,-3.9515,-3.9588,-3.9621,-3.9609,-3.9728,-3.9696,-3.97,-3.9703,-3.9743,-3.9753,-3.9762,-3.9641,-3.9641,-3.964,0,0,-3.9159,-3.9192,-3.9248,-3.9281,-3.933,-3.9349,-3.9363,-3.9411,-3.9427,-3.9495,-3.9495,-3.9539,-3.9623,-3.9654,-3.9681,-3.9764,-3.976,-3.9779,-3.9813,-3.9853,-3.9862,-3.9869,-3.9897,-3.9907,-3.9785,-3.9785,-3.9785,0,-3.9181,-3.9258,-3.9277,-3.9331,-3.9362,-3.9365,-3.9421,-3.9452,-3.9513,-3.9534,-3.952,-3.9625,-3.9655,-3.9735,-3.9755,-3.9778,-3.9793,-3.9771,-3.9859,-3.9867,-3.9875,-3.9901,-3.9911,-3.9787,-3.9787,-3.9787,-3.9787,0,-3.9282,-3.9335,-3.9375,-3.9435,-3.947,-3.9525,-3.9552,-3.9586,-3.9593,-3.9614,-3.9682,-3.972,-3.9774,-3.9794,-3.9801,-3.9875,-3.9866,-3.9856,-3.9829,-3.9886,-3.9911,-3.9922,-3.979,-3.9789,-3.9788,-3.9788,0,0,-3.9357,-3.9428,-3.9442,-3.9469,-3.9524,-3.9565,-3.962,-3.9674,-3.9702,-3.9745,-3.979,-3.9862,-3.9853,-3.9884,-3.9895,-3.993,-3.9991,-3.9916,-3.9917,-3.9926,-4.0073,-4.0079,-4.009,-3.999,-3.9992,-3.9994,-4.0069,0,-3.9429,-3.9528,-3.9547,-3.9632,-3.968,-3.9686,-3.9734,-3.9772,-3.9794,-3.9837,-3.9861,-3.9911,-3.9896,-3.9915,-3.995,-3.9976,-4.002,-3.9971,-4.0031,-4.0033,-4.0017,-4.0103,-4.0109,-4.0178,-4.0079,-4.008,-4.0082,0,-3.9525,-3.9572,-3.9662,-3.971,-3.9731,-3.9774,-3.9825,-3.9868,-3.9911,-3.9925,-3.996,-3.9967,-4.0024,-3.9997,-4.0075,-4.0041,-4.0067,-4.0083,-4.0087,-4.009,-4.0059,-4.0107,-4.02,-4.0209,-4.0098,-4.0096,-4.0095,0,-3.9568,-3.9653,-3.9718,-3.9741,-3.98,-3.983,-3.9856,-3.9898,-3.9929,-3.9974,-3.9994,-4.0045,-4.0072,-4.0111,-4.0131,-4.011,-4.0207,-4.0182,-4.0218,-4.0217,-4.0235,-4.0233,-4.0331,-4.0257,-4.0257,-4.0256,-4.0256,0,-3.9645,-3.9699,-3.9738,-3.9777,-3.9838,-3.986,-3.992,-3.9945,-3.9983,-4.0027,-4.0035,-4.0075,-4.0101,-4.0146,-4.0162,-4.0223,-4.0236,-4.0247,-4.025,-4.0245,-4.0243,-4.026,-4.0255,-4.0259,-4.0258,-4.0258,-4.0257,0,-3.9702,-3.973,-3.98,-3.9851,-3.9865,-3.9908,-3.9951,-3.9989,-4.0012,-4.0067,-4.0081,-4.0116,-4.0169,-4.0194,-4.0259,-4.0271,-4.0339,-4.034,-4.0324,-4.0325,-4.0359,-4.0354,-4.0469,-4.0484,-4.0401,-4.0402,-4.0403,0,-3.9747,-3.9789,-3.9845,-3.9876,-3.9903,-3.9952,-3.9984,-4.0008,-4.0041,-4.0095,-4.0126,-4.018,-4.0223,-4.0307,-4.0338,-4.0388,-4.0389,-4.0426,-4.0396,-4.0389,-4.0387,-4.0383,-4.0387,-4.043,-4.0431,-4.0431,-4.0432,0,-3.9825,-3.9837,-3.9884,-3.9936,-3.9975,-4.0017,-4.0058,-4.0082,-4.0113,-4.015,-4.0204,-4.0238,-4.0306,-4.0358,-4.041,-4.0436,-4.0438,-4.0442,-4.0452,-4.0445,-4.0433,-4.0438,-4.0336,-4.0438,-4.0437,-4.0437,-4.0437,-4.0436,-3.9876,-3.9913,-3.9959,-4.0011,-4.0045,-4.0083,-4.0121,-4.015,-4.0196,-4.0253,-4.0264,-4.0322,-4.0365,-4.0436,-4.0463,-4.0508,-4.05,-4.0515,-4.0519,-4.0522,-4.0522,-4.0429,-4.0518,-4.0518,-4.0518,-4.0518,-4.0518,0,-3.9952,-3.9982,-4.003,-4.0088,-4.0128,-4.013,-4.0176,-4.0209,-4.026,-4.0301,-4.0344,-4.0407,-4.0458,-4.0494,-4.0545,-4.0574,-4.0577,-4.0587,-4.0584,-4.0589,-4.0528,-4.0513,-4.0584,-4.0584,-4.0584,-4.0584,-4.0584,-4.0584,-3.9996,-4.0059,-4.0077,-4.0157,-4.0186,-4.0243,-4.0269,-4.0305,-4.0337,-4.0407,-4.045,-4.0473,-4.0512,-4.0567,-4.0614,-4.0623,-4.064,-4.065,-4.0659,-4.0601,-4.0594,-4.0587,-4.0572,-4.0655,-4.0655,-4.0716,-4.0716,-4.0717]},{"header":{"parameterUnit":"m.s-1","parameterCategory":1,"la1":30.2991,"la2":30.254,"lo1":-89.0895,"lo2":-89.0444,"dy":0.0017,"dx":0.0017,"nx":28,"ny":28,"refTime":"2024-02-07T09:00:00:Z","depth":0,"parameterNumber":3,"parameterNumberName":"V-component_of_WINDS"},"data":[0,0,0,0,0,0,0,0,0,0,0,0,0,0,0,0,0,0,0,0,0,0,0,0,0,0,0,0,0,0,0,0,0,0,0,0,0,0,0,0,0,0,0,0,0,0,0,0,0,0,0,0,0,0,0,0,0,0,2.1303,2.1303,0,2.1359,2.1359,2.136,2.1385,2.1385,2.1385,2.1385,2.1439,2.1441,2.1442,0,0,0,0,0,0,0,0,0,0,0,0,0,2.1216,2.1218,2.1302,2.1303,2.1304,2.1358,2.1359,2.136,2.1385,2.1385,2.1385,2.1385,2.1439,2.144,2.1442,0,0,0,0,0,0,0,0,0,0,0,0,0,2.1261,2.1218,2.1302,2.1323,2.1325,2.1358,2.1359,2.136,2.1385,2.1385,2.1385,2.1385,2.1438,2.144,2.1442,2.1458,0,0,2.1449,2.145,0,0,0,0,0,0,0,0,2.1258,2.1264,2.1319,2.1322,2.1324,2.1365,2.1349,2.1393,2.1385,2.1362,2.1385,2.1385,2.1414,2.1418,2.1429,2.1461,2.1463,2.145,2.1451,2.1452,2.1452,0,0,0,0,0,0,0,2.1255,2.1262,2.1325,2.132,2.1323,2.1329,2.1335,2.1357,2.1388,2.1364,2.1366,2.1373,2.1416,2.1427,2.143,2.1464,2.1449,2.1451,2.1453,2.1454,2.1514,2.1514,0,0,0,0,0,0,2.1249,2.1259,2.1323,2.1326,2.1291,2.1331,2.1338,2.1352,2.1388,2.1393,2.1373,2.1374,2.1423,2.1428,2.1432,2.1455,2.1452,2.1454,2.1455,2.1514,2.1514,2.1514,0,0,0,0,0,0,2.1247,2.1254,2.1321,2.1293,2.1302,2.1332,2.1348,2.1353,2.1364,2.1394,2.14,2.1379,2.1423,2.1429,2.1452,2.1457,2.1455,2.1457,2.1514,2.1514,2.1514,2.15,0,0,0,0,0,0,2.1245,2.1254,2.126,2.1293,2.1304,2.134,2.1348,2.1354,2.1368,2.137,2.1401,2.1406,2.1424,2.1449,2.1455,2.1461,2.1459,2.1513,2.1514,2.1514,2.15,2.1499,2.1499,0,0,0,0,0,2.1241,2.1252,2.126,2.1268,2.1312,2.134,2.1346,2.1366,2.1369,2.1375,2.1395,2.1405,2.1456,2.1451,2.1458,2.1464,2.1513,2.1514,2.1514,2.15,2.15,2.1499,0,0,0,0,0,0,2.1216,2.1257,2.1266,2.1288,2.1311,2.1344,2.1353,2.1365,2.1386,2.1387,2.1411,2.1417,2.1439,2.1454,2.1448,2.1483,2.1485,2.1487,2.1472,2.1472,2.1472,2.1468,2.1461,0,0,0,0,0,2.1214,2.1234,2.1267,2.1284,2.1295,2.1322,2.1335,2.1349,2.1373,2.1382,2.1403,2.1426,2.1447,2.146,2.1481,2.1502,2.151,2.151,2.151,2.1509,2.1511,2.1526,2.1527,2.1516,2.1516,2.1516,0,0,2.1208,2.1232,2.1243,2.1279,2.1299,2.1319,2.133,2.135,2.1365,2.1385,2.1409,2.1426,2.1452,2.1475,2.1486,2.1488,2.1516,2.151,2.151,2.1511,2.1526,2.1527,2.1528,2.1517,2.1517,2.1517,0,0,2.1208,2.1228,2.1245,2.1265,2.1295,2.1313,2.1317,2.135,2.1362,2.1387,2.1403,2.1422,2.1457,2.1477,2.1491,2.1502,2.1512,2.1508,2.1506,2.152,2.1521,2.1522,2.1528,2.1529,2.1509,2.1509,2.1509,0,2.1196,2.1228,2.1252,2.1272,2.1289,2.131,2.1328,2.1345,2.138,2.139,2.1392,2.144,2.1459,2.1488,2.1491,2.1501,2.1508,2.1504,2.1519,2.152,2.1521,2.1527,2.1529,2.1508,2.1508,2.1508,2.1509,0,2.1214,2.1236,2.1246,2.1281,2.1299,2.1317,2.1344,2.1359,2.1372,2.1391,2.1417,2.1441,2.1469,2.1477,2.1489,2.1508,2.1509,2.1515,2.1518,2.1522,2.1527,2.153,2.1507,2.1508,2.1508,2.1508,0,0,2.1198,2.1249,2.1252,2.127,2.1305,2.1323,2.1343,2.1372,2.1385,2.1409,2.1427,2.1459,2.1466,2.1482,2.1497,2.1509,2.1519,2.1514,2.1515,2.1515,2.1544,2.154,2.1542,2.1526,2.1527,2.1527,2.1543,0,2.1204,2.1243,2.1266,2.1296,2.1317,2.1339,2.1357,2.1382,2.14,2.1421,2.1441,2.1464,2.147,2.148,2.1494,2.1515,2.1525,2.1514,2.1545,2.1545,2.1538,2.1545,2.1541,2.1554,2.1545,2.1545,2.1546,0,2.1215,2.1241,2.1274,2.131,2.132,2.1336,2.1366,2.1386,2.1414,2.1427,2.1447,2.1463,2.1486,2.1488,2.1521,2.1513,2.1527,2.154,2.1541,2.1545,2.1546,2.1551,2.1558,2.1561,2.1549,2.1549,2.1548,0,2.1203,2.1245,2.1271,2.1285,2.1328,2.1339,2.1357,2.1386,2.1403,2.1429,2.144,2.1468,2.1483,2.1504,2.1528,2.1526,2.1559,2.1562,2.1571,2.1571,2.1577,2.1577,2.1589,2.1585,2.1585,2.1585,2.1584,0,2.1207,2.1227,2.1267,2.1282,2.1305,2.1332,2.1354,2.1374,2.14,2.142,2.144,2.1459,2.1488,2.151,2.1529,2.1555,2.1561,2.1573,2.1577,2.1572,2.157,2.1581,2.1582,2.1585,2.1585,2.1585,2.1585,0,2.1197,2.1224,2.1254,2.1293,2.1304,2.1319,2.1353,2.1369,2.139,2.1416,2.1423,2.1455,2.1483,2.1509,2.1545,2.1557,2.1585,2.159,2.1575,2.1578,2.1587,2.1586,2.1607,2.1612,2.1603,2.1603,2.1603,0,2.1198,2.1214,2.1256,2.1272,2.1291,2.1315,2.1334,2.1361,2.138,2.1415,2.1428,2.1458,2.1483,2.1527,2.1553,2.1582,2.1589,2.1594,2.1593,2.1588,2.1591,2.1591,2.1593,2.1594,2.1594,2.1594,2.1594,0,2.1198,2.1212,2.1238,2.127,2.1292,2.1318,2.1344,2.1356,2.1389,2.1408,2.1438,2.1458,2.1497,2.1527,2.156,2.1578,2.1592,2.1594,2.1598,2.1593,2.1585,2.1591,2.1576,2.1594,2.1594,2.1594,2.1594,2.1594,2.1195,2.1211,2.1245,2.1274,2.1297,2.1322,2.1341,2.1365,2.1391,2.1426,2.1441,2.1472,2.1502,2.1548,2.1567,2.1592,2.1594,2.1599,2.1601,2.1602,2.1602,2.158,2.1597,2.1597,2.1597,2.1597,2.1597,0,2.1198,2.1221,2.1248,2.1286,2.1309,2.1322,2.1353,2.1372,2.1399,2.1427,2.1453,2.1489,2.1519,2.1549,2.158,2.1595,2.1602,2.1602,2.1602,2.1607,2.1597,2.1591,2.1596,2.1596,2.1596,2.1596,2.1596,2.1596,2.1202,2.1231,2.125,2.1291,2.1314,2.1346,2.1363,2.1387,2.141,2.145,2.1475,2.1495,2.1525,2.156,2.1588,2.1596,2.1608,2.1607,2.1616,2.1607,2.1607,2.1607,2.1601,2.1608,2.1608,2.1624,2.1625,2.1625]}]]